Presure
146 176 189 185 107 181 183 89 178 122 91 91 132 182 95 160 86 87 61 76 88 61 82 87 97 90 97 88 75 69 182 172 149 204 196 182 226 231 243 298 316 92 299 302
191 182 141 77 71 97 101 82 77 75 81 146 78 80 109 130 95 74 93 91 95 90 92 103 167 182 181 173 177 171 171 186 187 185 181 226 231 238 286 303 293 319 301 301
184 155 146 106 163 134 71 138 181 187 132 177 96 77 85 135 80 126 174 177 170 117 166 182 97 79 185 175 191 175 177 183 197 195 165 228 238 293 285 282 265 226 281 298
188 184 182 167 168 173 183 185 168 174 172 172 175 172 175 180 170 168 162 169 176 183 177 179 172 177 190 175 189 179 189 189 194 196 229 240 298 284 294 263 243 203 245 232
194 186 186 178 160 178 171 166 190 177 169 167 172 171 175 177 178 177 180 184 164 171 175 165 162 181 184 184 183 164 186 165 148 227 157 316 273 315 267 225 209 202 232 206
201 194 183 181 185 182 178 176 165 176 176 173 173 176 160 165 177 180 180 170 164 179 179 174 189 184 184 181 175 190 179 192 199 242 310 318 249 278 205 210 210 204 206 219
191 198 190 190 184 180 179 185 174 166 164 179 174 175 175 176 170 174 169 167 167 166 174 184 177 180 178 173 187 183 192 224 254 313 275 239 219 256 203 199 198 204 185 196
212 201 196 193 187 183 175 174 182 182 178 177 174 168 173 176 174 176 176 180 172 178 184 178 147 170 179 178 188 191 229 314 310 260 233 213 211 205 196 189 188 189 184 193
215 205 200 187 191 196 186 188 186 178 177 176 173 169 165 174 182 174 170 165 180 183 177 172 186 183 185 170 166 239 267 239 237 220 215 205 201 202 193 189 195 200 192 193
211 212 201 196 167 175 179 183 179 178 175 174 176 177 190 191 177 178 178 151 174 182 172 186 175 186 196 210 271 250 231 225 214 209 204 205 198 194 194 191 192 189 195 198
232 216 209 199 189 189 182 178 181 145 180 174 173 173 176 175 162 179 144 187 184 174 181 195 182 245 277 255 234 225 216 211 206 202 201 201 197 194 194 197 189 186 189 184
235 238 212 202 115 161 130 177 161 165 159 157 168 149 188 187 186 187 189 188 194 163 173 270 256 235 227 223 216 213 213 203 198 203 203 202 198 194 198 199 190 185 188 189
223 227 183 170 216 197 191 185 195 194 204 207 200 206 207 207 206 206 211 208 220 258 234 227 221 215 211 210 210 210 202 203 205 198 191 187 190 191 191 189 185 182 184 184
164 250 293 257 225 235 225 194 162 217 218 218 214 220 195 214 236 248 241 231 223 219 216 211 206 204 204 203 201 202 199 190 192 192 191 189 187 187 184 185 186 183 187 186
221 224 227 229 231 235 236 234 234 231 227 223 220 218 219 218 214 214 212 209 205 203 202 201 203 200 189 185 184 187 188 185 195 195 195 190 189 197 198 197 200 200 200 199
204 204 205 205 205 203 202 204 204 204 203 202 198 197 198 197 200 199 196 196 194 187 177 178 181 127 191 190 183 178 190 190 193 200 203 203 204 205 205 211 214 211 208 196
188 183 180 181 179 179 181 185 184 176 184 187 185 183 177 183 183 176 184 187 188 186 184 179 182 184 191 196 201 201 202 203 214 214 219 213 211 215 216 220 217 211 216 222
216 206 195 182 177 179 181 172 178 183 186 185 182 180 181 182 180 184 182 213 222 217 220 220 221 224 232 232 235 237 239 248 240 243 228 231 233 235 239 239 231 224 234 242
203 204 205 218 216 211 204 200 200 199 202 201 201 201 200 202 202 207 195 211 232 241 249 242 230 225 233 238 246 249 257 240 238 239 241 241 244 250 250 251 254 254 253 252
152 204 199 170 160 179 171 211 205 208 189 197 201 158 198 204 201 194 218 235 232 228 225 225 242 245 244 239 250 251 240 243 243 237 222 254 259 247 215 234 210 214 267 273
191 189 163 188 179 150 173 157 211 149 159 212 203 211 209 212 209 229 229 224 219 232 238 228 225 237 171 198 255 249 247 246 233 254 260 261 257 233 266 279 310 320 325 314
188 189 189 187 187 201 197 191 180 189 203 217 203 202 204 205 215 213 226 204 218 238 254 251 237 239 251 248 244 256 255 249 253 259 264 280 310 307 309 305 297 316 323 321
195 177 178 178 192 201 194 216 210 188 213 215 196 216 202 213 214 217 214 225 236 239 248 244 256 248 254 260 252 258 265 267 273 293 307 294 297 310 284 324 342 340 321 396
190 198 187 207 200 205 219 216 208 191 196 218 210 203 204 208 216 228 227 235 225 243 257 254 261 269 252 261 265 266 287 299 305 301 296 290 361 376 403 392 380 96 339 337
184 186 196 185 198 203 200 199 206 196 196 211 203 205 227 223 228 231 235 238 245 252 259 254 276 278 272 280 288 309 308 298 287 294 381 391 356 348 188 349 357 359 355 353
191 194 186 206 216 185 200 192 211 202 204 198 214 215 226 223 233 239 245 245 253 266 270 265 306 298 308 216 266 295 293 301 330 355 359 374 373 367 373 377 388 386 388 389
Wind_Speed
52 66 69 67 29 61 61 29 58 40 32 31 40 52 32 43 25 28 5 31 36 12 37 43 53 38 52 44 35 34 56 72 70 79 72 75 84 82 85 75 61 53 52 47
76 72 52 20 11 26 28 28 17 24 27 45 22 25 33 38 37 32 43 41 47 47 50 48 54 53 51 54 59 71 71 73 70 73 75 84 82 82 79 62 56 43 42 40
74 62 52 36 56 42 24 45 61 61 45 52 27 32 36 44 34 44 47 49 52 44 56 59 42 41 58 63 69 66 70 71 81 76 65 82 81 74 64 53 47 46 39 36
77 72 69 53 53 57 62 63 51 54 51 50 51 51 49 51 52 52 54 52 52 61 54 56 56 59 70 62 67 66 77 76 77 76 85 81 76 65 48 44 45 45 40 41
78 73 72 66 55 63 56 45 62 57 50 48 50 49 55 54 57 57 57 59 59 56 56 62 68 67 71 68 67 70 76 68 62 87 64 72 60 41 39 42 42 44 39 37
79 75 65 62 66 64 62 60 44 53 54 51 51 51 54 57 60 60 60 58 63 65 67 63 78 71 74 70 73 81 75 79 76 81 67 49 49 34 45 42 42 41 40 42
60 73 70 70 64 61 60 62 54 39 37 56 54 54 57 62 59 62 65 67 64 63 66 76 73 71 73 74 82 77 85 87 79 59 55 50 47 34 47 46 43 42 43 41
76 71 67 68 64 61 52 50 58 60 58 58 56 54 60 64 64 68 68 73 67 75 78 73 63 74 82 79 83 85 86 65 54 49 49 49 46 47 49 50 49 47 47 44
73 70 67 55 60 62 61 62 61 59 60 59 57 58 60 67 73 65 66 68 79 80 75 75 86 85 85 74 67 79 62 62 53 54 52 54 54 51 54 55 51 49 49 48
65 66 63 59 47 53 56 58 57 59 57 57 63 65 75 75 73 75 77 66 77 81 76 87 79 86 84 78 68 60 63 61 62 61 61 58 60 61 59 59 57 56 55 53
63 63 63 61 56 59 55 52 58 48 62 61 64 67 74 74 67 80 62 86 85 77 84 93 84 82 63 59 64 64 65 67 68 69 68 66 66 67 66 64 63 61 59 58
49 52 62 60 34 45 40 58 54 54 56 54 63 59 79 79 80 85 90 90 92 69 76 68 64 69 69 69 71 70 69 73 79 76 74 73 73 74 72 71 71 70 69 67
27 33 39 42 55 61 64 62 68 69 65 71 77 76 77 79 81 83 84 86 85 65 71 71 74 76 79 80 79 78 80 81 81 79 79 79 79 79 79 77 75 73 74 72
28 13 11 30 42 48 50 55 50 58 62 65 69 72 66 62 70 63 65 68 72 74 76 78 82 85 85 86 88 90 89 86 86 85 84 83 84 84 81 80 79 77 80 80
10 11 13 17 21 24 29 36 38 42 47 49 55 58 61 61 65 68 70 74 79 83 86 87 88 88 88 88 90 93 96 92 98 96 95 91 91 97 97 97 97 96 96 95
21 24 27 29 31 34 42 45 47 51 56 57 62 67 69 72 73 75 78 82 85 86 86 89 92 58 96 96 91 90 100 101 104 108 109 109 110 110 110 110 109 108 108 100
33 39 42 45 46 50 54 58 59 60 66 67 69 74 78 80 81 78 84 87 89 92 92 92 96 99 103 107 108 109 110 111 113 115 116 116 116 116 117 117 115 113 114 114
32 39 44 52 53 54 60 65 69 71 72 74 77 80 84 86 86 90 90 89 90 95 98 100 102 104 101 103 103 105 107 108 112 113 116 117 117 118 119 121 123 121 120 118
43 45 45 43 48 51 56 62 69 72 73 79 82 83 88 89 88 89 95 94 90 93 95 98 102 106 106 107 109 110 111 112 113 113 114 117 120 122 123 124 127 127 126 125
52 51 54 60 60 55 64 63 70 71 77 81 83 78 93 92 93 95 93 98 100 99 98 99 107 110 112 113 111 115 116 119 119 118 111 123 124 122 110 123 108 99 137 139
58 54 62 57 62 69 70 70 69 71 69 79 82 80 82 86 90 105 106 102 100 110 114 110 106 113 100 99 114 113 114 115 113 123 129 133 130 125 136 137 134 127 123 122
66 68 68 67 67 72 73 71 66 74 86 87 83 86 86 90 102 101 112 105 110 121 120 120 116 117 122 122 120 124 128 128 129 131 135 136 134 133 133 128 124 125 123 120
74 70 72 74 82 84 81 85 86 74 90 93 81 104 95 110 111 110 107 121 123 127 128 124 126 127 129 129 130 133 135 137 139 140 134 125 127 130 118 125 122 120 117 100
83 84 85 85 87 90 90 94 91 87 88 105 108 98 98 105 116 125 125 130 117 134 133 134 134 132 131 135 134 134 138 136 134 130 128 127 113 110 102 101 101 23 103 103
90 95 98 90 94 99 100 99 101 94 92 109 97 104 123 123 129 131 135 137 136 144 140 136 137 136 137 137 135 131 131 128 120 125 107 101 100 100 53 99 96 95 94 95
98 105 89 100 101 73 101 85 106 102 115 104 122 119 132 123 137 142 142 136 144 149 144 145 129 132 128 101 102 124 126 125 113 100 97 93 92 90 88 87 85 85 85 85
Wind_Direction
216 221 220 221 229 227 230 247 237 246 256 257 250 248 256 255 262 265 312 282 273 284 277 277 272 282 278 275 271 283 288 280 288 312 307 293 314 315 317 314 313 291 310 309
216 220 220 234 255 244 244 252 255 260 258 250 252 264 259 260 268 280 269 272 272 270 269 277 283 291 290 297 285 285 282 295 297 296 295 314 315 315 315 314 314 315 315 314
217 217 218 228 227 229 260 239 236 239 250 247 263 259 266 261 270 267 263 268 268 275 271 287 281 281 296 284 299 281 285 291 308 305 294 313 313 311 312 313 313 311 317 321
216 221 224 231 233 236 233 234 245 246 249 251 252 258 260 262 262 263 260 266 273 282 284 287 278 287 296 281 295 288 301 300 303 304 311 312 309 310 307 309 312 307 316 318
215 219 222 228 231 234 244 246 239 246 251 255 256 260 265 267 271 272 276 280 264 278 283 272 271 289 290 292 295 286 297 294 291 308 294 307 310 303 303 309 305 305 317 315
214 218 225 229 230 235 239 245 253 252 253 257 260 261 258 264 274 279 278 266 266 285 285 281 289 292 294 292 289 296 289 298 300 308 306 307 308 298 300 305 306 306 312 315
214 219 223 226 232 238 242 243 248 254 253 257 262 264 266 272 272 273 268 271 268 270 280 286 285 289 285 279 292 291 297 303 305 303 303 304 299 296 297 297 300 305 302 306
215 221 224 227 233 237 244 249 251 254 258 261 264 264 268 270 271 273 277 281 281 285 288 286 282 283 287 285 292 293 300 301 300 298 300 296 296 294 292 293 295 296 298 299
217 221 225 232 235 237 243 247 252 256 259 263 267 266 261 271 274 273 273 272 281 282 278 275 283 283 287 288 289 298 297 297 297 295 294 291 291 291 290 292 293 295 295 295
219 224 229 234 237 242 248 252 256 260 263 265 267 268 267 270 272 274 275 276 276 274 273 279 279 284 288 292 294 290 292 294 293 292 292 291 290 290 290 291 291 293 293 293
218 226 231 234 240 242 250 254 257 260 261 262 264 265 264 266 271 272 280 274 273 273 276 282 281 290 290 288 287 286 287 289 289 289 289 289 289 290 290 288 290 291 291 292
221 224 233 238 252 233 255 253 244 250 253 261 263 273 264 267 269 270 270 272 277 285 285 288 288 288 286 285 286 285 284 285 288 287 287 287 289 290 289 289 291 292 292 291
230 235 233 236 241 246 249 254 255 257 264 265 263 266 268 271 273 274 277 279 281 282 283 283 283 284 284 285 285 284 285 285 285 288 289 290 289 289 289 289 289 290 289 289
250 243 243 247 251 252 257 259 264 267 269 271 272 273 274 275 277 277 278 280 281 280 279 278 279 281 283 285 286 287 287 288 287 286 286 288 288 288 289 288 287 288 288 288
211 225 239 249 257 264 267 267 269 270 271 274 274 276 276 276 275 276 276 276 277 278 279 281 282 283 285 286 287 287 287 289 288 289 289 288 287 287 287 286 286 285 284 283
235 238 242 243 248 252 258 258 259 260 262 262 267 270 273 274 275 276 276 276 276 279 285 286 286 280 282 282 285 287 285 287 288 287 286 286 285 285 284 282 281 280 280 283
256 259 261 260 260 263 265 265 265 267 268 269 270 271 277 276 277 279 277 276 277 278 280 283 283 283 283 283 283 282 282 282 281 282 282 282 283 282 282 281 281 280 279 278
261 258 261 264 266 266 266 273 274 273 272 272 273 276 278 280 282 281 282 290 291 285 284 283 283 284 285 285 285 285 285 287 284 284 281 282 282 282 281 281 279 279 277 275
272 268 263 261 261 264 267 268 269 271 273 275 278 277 276 277 277 278 279 289 298 300 299 294 288 286 289 291 291 290 289 285 284 285 285 284 284 283 283 284 283 282 281 281
276 275 272 273 275 269 275 276 272 277 277 276 277 286 277 280 281 280 295 303 301 299 296 296 298 296 293 292 294 294 291 290 287 286 288 285 285 285 290 283 290 291 285 284
289 285 279 276 277 281 283 285 284 286 279 288 281 287 287 290 288 302 302 301 299 301 299 297 295 298 291 294 295 294 294 293 294 294 292 292 289 287 289 289 289 288 286 285
290 291 291 282 287 288 287 285 277 288 291 299 289 291 292 295 302 302 301 297 302 302 301 299 299 301 301 300 299 298 296 296 296 296 296 293 290 290 290 289 289 287 286 286
292 289 289 288 294 289 293 292 293 290 298 299 292 301 303 303 304 304 304 303 303 305 304 303 302 301 301 297 298 297 295 294 293 292 291 293 293 290 290 288 286 286 285 286
295 292 294 291 294 295 296 296 296 296 300 301 302 303 307 306 305 303 304 305 305 305 303 304 301 298 299 298 297 297 292 289 290 292 293 293 287 288 289 288 287 274 285 284
294 294 292 299 297 296 298 299 298 303 299 301 301 303 300 303 303 304 304 304 305 306 304 304 299 295 297 296 294 288 287 292 296 296 289 289 289 287 281 284 284 284 283 282
291 290 296 295 295 300 299 299 297 297 299 303 302 303 302 304 304 304 304 306 305 304 301 302 292 292 289 298 290 292 293 291 292 291 290 289 288 287 286 285 284 283 283 282